DW9982 Weather Reports


time (UTC)temp
C
wind
direction
speed
KPH
gust
KPH
rain 1hr
cm
rain 24hr
cm
rain mn
cm
humidity
%
barometer
mb
20260505070552 12 279 0.0 0.0 0.53 0.53 0.53 82 1007.8
20260505070047 12 295 0.0 0.0 0.51 0.51 0.51 81 1007.7
20260505065546 12 88 0.0 0.0 0.51 0.51 0.51 81 1007.2
20260505065047 12 274 0.0 0.0 0.46 0.46 0.46 78 1007.6
20260505064544 12 352 0.0 12.9 0.41 0.41 0.41 80 1007.0
20260505064042 13 15 1.6 14.5 0.30 0.30 0.30 77 1006.5
20260505063541 14 314 0.0 14.5 0.10 0.10 0.10 77 1006.6
20260505063039 15 270 0.0 12.9 0.03 0.03 0.03 76 1006.6
20260505062538 15 288 1.6 9.7 0.00 0.00 0.00 75 1006.3
20260505062038 15 309 0.0 9.7 0.00 0.00 0.00 75 1005.9
20260505061534 15 324 0.0 9.7 0.00 0.00 0.00 75 1005.6
20260505061034 15 32 0.0 1.6 0.00 0.00 0.00 75 1005.4
20260505060536 15 93 0.0 1.6 0.00 0.00 0.00 75 1005.4
20260505060032 15 56 0.0 0.0 0.00 0.00 0.00 75 1005.1
20260505055533 16 99 0.0 20.9 0.00 0.00 0.00 71 1005.1
20260505055028 16 293 0.0 20.9 0.00 0.00 0.00 69 1005.1
20260505054546 17 351 4.8 20.9 0.00 0.00 0.00 64 1004.9
20260505054027 17 297 3.2 16.1 0.00 0.00 0.00 60 1005.0
20260505053523 18 39 4.8 29.0 0.00 0.00 0.00 57 1005.1
20260505053029 20 275 11.3 27.4 0.00 0.00 0.00 54 1005.3
20260505052521 21 33 3.2 16.1 0.00 0.00 0.00 69 1004.8
20260505052019 21 130 0.0 0.0 0.00 0.00 0.00 73 1004.3
20260505051532 20 275 0.0 0.0 0.00 0.00 0.00 73 1004.1
20260505051017 20 293 0.0 4.8 0.00 0.00 0.00 75 1003.7
20260505050521 20 293 0.0 4.8 0.00 0.00 0.00 75 1003.6
20260505041516 21 122 0.0 16.1 0.00 0.00 0.00 73 1003.3
20260505041013 21 136 3.2 16.1 0.00 0.00 0.00 73 1003.5
20260505040513 21 115 4.8 16.1 0.00 0.00 0.00 73 1003.6
20260505040019 21 106 1.6 9.7 0.00 0.00 0.00 73 1003.5
20260505035512 21 106 0.0 1.6 0.00 0.00 0.00 73 1003.5
20260505035012 21 105 0.0 3.2 0.00 0.00 0.00 73 1003.6
20260505034512 21 145 0.0 4.8 0.00 0.00 0.00 72 1003.7
20260505034016 21 104 0.0 4.8 0.00 0.00 0.00 72 1003.6
20260505033512 21 101 0.0 1.6 0.00 0.00 0.00 71 1003.6
20260505033012 22 134 0.0 0.0 0.00 0.00 0.00 71 1003.6
20260505032512 22 145 0.0 0.0 0.00 0.00 0.00 70 1003.6
20260505032013 22 122 0.0 0.0 0.00 0.00 0.00 69 1003.5
20260505031510 22 127 0.0 6.4 0.00 0.00 0.00 69 1003.5
20260505031014 22 147 0.0 9.7 0.00 0.00 0.00 69 1003.4
20260505030513 22 160 0.0 14.5 0.00 0.00 0.00 68 1003.4
20260505030022 22 148 1.6 14.5 0.00 0.00 0.00 68 1003.4
20260505025511 22 164 0.0 1.6 0.00 0.00 0.00 68 1003.3
20260505025011 22 145 0.0 0.0 0.00 0.00 0.00 68 1003.2
20260505024510 22 148 0.0 0.0 0.00 0.00 0.00 67 1003.2
20260505024010 22 149 0.0 0.0 0.00 0.00 0.00 67 1003.0
20260505023509 22 113 0.0 0.0 0.00 0.00 0.00 66 1003.0
20260505023009 22 148 0.0 0.0 0.00 0.00 0.00 66 1002.9
20260505022509 22 155 0.0 0.0 0.00 0.00 0.00 65 1002.7
20260505022009 22 145 0.0 0.0 0.00 0.00 0.00 64 1002.7
20260505021509 22 142 0.0 0.0 0.00 0.00 0.00 64 1002.6
20260505021009 22 142 0.0 0.0 0.00 0.00 0.00 64 1002.5
20260505020508 23 148 0.0 0.0 0.00 0.00 0.00 63 1002.4
20260505020008 23 134 0.0 0.0 0.00 0.00 0.00 63 1002.4
20260505015508 23 134 0.0 0.0 0.00 0.00 0.00 63 1002.4
20260505015008 23 147 0.0 0.0 0.00 0.00 0.00 63 1002.3
20260505014507 23 143 0.0 0.0 0.00 0.00 0.00 62 1002.2
20260505014008 23 143 0.0 0.0 0.00 0.00 0.00 62 1002.2
20260505013507 23 142 0.0 0.0 0.00 0.00 0.00 62 1002.1
20260505013007 23 143 0.0 0.0 0.00 0.00 0.00 61 1002.0
20260505012507 23 213 0.0 0.0 0.00 0.00 0.00 60 1002.0
20260505012010 24 212 0.0 0.0 0.00 0.00 0.00 59 1001.9
20260505011510 24 218 0.0 0.0 0.00 0.00 0.00 58 1001.8
20260505011008 25 218 0.0 0.0 0.00 0.00 0.00 57 1001.7
20260505010506 25 218 0.0 0.0 0.00 0.00 0.00 57 1001.7
20260505010006 25 174 0.0 0.0 0.00 0.00 0.00 56 1001.6
20260505005506 25 143 0.0 0.0 0.00 0.00 0.00 55 1001.5
20260505005006 26 141 0.0 0.0 0.00 0.00 0.00 55 1001.5
20260505004508 26 141 0.0 0.0 0.00 0.00 0.00 53 1001.4
20260505004005 26 132 0.0 0.0 0.00 0.00 0.00 53 1001.3
20260505003510 26 156 0.0 0.0 0.00 0.00 0.00 52 1001.3
20260505003005 26 155 0.0 0.0 0.00 0.00 0.00 52 1001.3
20260505002505 26 132 0.0 0.0 0.00 0.00 0.00 52 1001.2
20260505002004 26 132 0.0 0.0 0.00 0.00 0.00 52 1001.3
20260505001504 26 138 0.0 0.0 0.00 0.00 0.00 52 1001.3
20260505001003 26 125 0.0 6.4 0.00 0.00 0.00 51 1001.3
20260505000503 26 239 0.0 6.4 0.00 0.00 0.00 51 1001.3
20260505000004 26 238 0.0 6.4 0.00 0.00 0.00 51 1001.3
20260504235503 26 271 0.0 8.0 0.00 0.00 0.00 50 1001.3
20260504235003 26 122 0.0 8.0 0.00 0.00 0.00 50 1001.3
20260504234505 27 132 0.0 9.7 0.00 0.00 0.00 48 1001.2
20260504234002 27 132 0.0 9.7 0.00 0.00 0.00 48 1001.3
20260504233503 27 273 0.0 3.2 0.00 0.00 0.00 47 1001.4
20260504233002 27 255 0.0 1.6 0.00 0.00 0.00 47 1001.3
20260504232501 27 131 0.0 6.4 0.00 0.00 0.00 46 1001.4
20260504232002 28 150 0.0 6.4 0.00 0.00 0.00 45 1001.4
20260504231501 28 158 0.0 6.4 0.00 0.00 0.00 45 1001.3
20260504231100 28 215 0.0 3.2 0.00 0.00 0.00 45 1001.4
20260504230559 28 257 0.0 6.4 0.00 0.00 0.00 45 1001.5
20260504230058 28 264 0.0 11.3 0.00 0.00 0.00 47 1001.4
20260504225602 27 283 1.6 11.3 0.00 0.00 0.00 47 1001.4
20260504225100 27 204 0.0 6.4 0.00 0.00 0.00 48 1001.4
20260504224601 27 250 0.0 11.3 0.00 0.00 0.00 47 1001.4
20260504224057 27 243 0.0 12.9 0.00 0.00 0.00 47 1001.4
20260504223556 27 214 3.2 12.9 0.00 0.00 0.00 47 1001.5
20260504223057 27 259 0.0 9.7 0.00 0.00 0.00 48 1001.5
20260504222556 27 232 0.0 6.4 0.00 0.00 0.00 47 1001.5
20260504222055 27 259 0.0 17.7 0.00 0.00 0.00 47 1001.6
20260504221555 27 142 1.6 17.7 0.00 0.00 0.00 47 1001.5
20260504221054 26 134 1.6 8.0 0.00 0.00 0.00 47 1001.6
20260504220556 26 129 0.0 4.8 0.00 0.00 0.00 47 1001.6
20260504220112 26 186 0.0 6.4 0.00 0.00 0.00 47 1001.7
20260504215553 27 249 0.0 6.4 0.00 0.00 0.00 46 1001.8
20260504215057 27 240 0.0 11.3 0.00 0.00 0.00 45 1001.8
20260504214556 27 219 0.0 14.5 0.00 0.00 0.00 45 1001.8
20260504214052 27 236 1.6 14.5 0.00 0.00 0.00 44 1001.8
20260504213551 27 259 0.0 6.4 0.00 0.00 0.00 45 1001.9
20260504213058 27 148 0.0 25.7 0.00 0.00 0.00 44 1001.9
20260504212551 27 145 3.2 25.7 0.00 0.00 0.00 43 1001.9
20260504212051 27 232 0.0 22.5 0.00 0.00 0.00 43 1001.9
20260504211554 27 248 3.2 19.3 0.00 0.00 0.00 44 1001.9
20260504211053 27 36 6.4 17.7 0.00 0.00 0.00 44 1001.9
20260504210549 27 108 0.0 20.9 0.00 0.00 0.00 44 1001.9
20260504210051 27 237 0.0 22.5 0.00 0.00 0.00 45 1002.0
20260504205552 27 250 3.2 20.9 0.00 0.00 0.00 44 1002.0
20260504205049 27 127 3.2 20.9 0.00 0.00 0.00 42 1002.1
20260504204548 27 256 4.8 20.9 0.00 0.00 0.00 42 1002.0
20260504204047 27 170 1.6 20.9 0.00 0.00 0.00 43 1002.1
20260504203546 27 129 0.0 17.7 0.00 0.00 0.00 44 1002.1
20260504203045 27 243 3.2 24.1 0.00 0.00 0.00 44 1002.2
20260504202545 27 166 4.8 14.5 0.00 0.00 0.00 42 1002.3
20260504202045 27 242 0.0 29.0 0.00 0.00 0.00 44 1002.3
20260504201543 27 171 4.8 27.4 0.00 0.00 0.00 44 1002.3
20260504201045 27 248 3.2 16.1 0.00 0.00 0.00 44 1002.3
20260504200544 27 231 4.8 16.1 0.00 0.00 0.00 44 1002.3
20260504200049 27 122 0.0 16.1 0.00 0.00 0.00 46 1002.4
20260504195542 27 169 1.6 20.9 0.00 0.00 0.00 45 1002.4
20260504195042 27 162 3.2 20.9 0.00 0.00 0.00 45 1002.4
20260504194545 27 99 1.6 12.9 0.00 0.00 0.00 46 1002.4
20260504194043 27 147 0.0 19.3 0.00 0.00 0.00 45 1002.4
20260504193541 27 136 4.8 19.3 0.00 0.00 0.00 45 1002.5
20260504193039 27 91 0.0 20.9 0.00 0.00 0.00 48 1002.4
20260504192539 27 242 4.8 20.9 0.00 0.00 0.00 45 1002.5
20260504192038 27 176 4.8 20.9 0.00 0.00 0.00 46 1002.5
20260504191550 26 130 4.8 20.9 0.00 0.00 0.00 45 1002.5
20260504191038 26 127 3.2 19.3 0.00 0.00 0.00 47 1002.6
20260504190536 26 132 1.6 25.7 0.00 0.00 0.00 46 1002.6
20260504190038 26 235 8.0 25.7 0.00 0.00 0.00 46 1002.6
20260504185535 26 274 4.8 17.7 0.00 0.00 0.00 44 1002.6
20260504185034 26 165 4.8 24.1 0.00 0.00 0.00 44 1002.7
20260504184545 26 232 6.4 24.1 0.00 0.00 0.00 46 1002.8
20260504184034 26 127 9.7 24.1 0.00 0.00 0.00 44 1002.7
20260504183536 26 267 3.2 27.4 0.00 0.00 0.00 44 1002.9
20260504183041 26 129 3.2 17.7 0.00 0.00 0.00 46 1002.8
20260504182532 26 293 0.0 11.3 0.00 0.00 0.00 45 1002.8
20260504182035 26 267 1.6 17.7 0.00 0.00 0.00 45 1002.8
20260504181531 26 129 0.0 25.7 0.00 0.00 0.00 47 1002.9
20260504181029 26 139 6.4 25.7 0.00 0.00 0.00 46 1002.9
20260504180528 25 184 3.2 14.5 0.00 0.00 0.00 47 1003.0
20260504180029 25 250 6.4 20.9 0.00 0.00 0.00 46 1003.1
20260504175527 25 114 0.0 25.7 0.00 0.00 0.00 46 1003.1
20260504175030 25 203 3.2 17.7 0.00 0.00 0.00 46 1003.2
20260504174525 25 290 0.0 17.7 0.00 0.00 0.00 46 1003.3
20260504174024 25 215 3.2 25.7 0.00 0.00 0.00 47 1003.3
20260504173523 25 239 9.7 25.7 0.00 0.00 0.00 46 1003.4
20260504173026 25 73 1.6 20.9 0.00 0.00 0.00 48 1003.4
20260504172524 25 148 6.4 20.9 0.00 0.00 0.00 47 1003.4
20260504172021 25 193 8.0 20.9 0.00 0.00 0.00 48 1003.5
20260504171520 25 106 1.6 24.1 0.00 0.00 0.00 50 1003.5
20260504171022 24 145 6.4 24.1 0.00 0.00 0.00 49 1003.5
20260504170519 24 267 6.4 22.5 0.00 0.00 0.00 49 1003.5
20260504151057 21 240 6.4 22.5 0.00 0.00 0.00 53 1004.0
20260504150559 21 155 4.8 19.3 0.00 0.00 0.00 54 1004.0
20260504141047 20 156 0.0 19.3 0.00 0.00 0.00 57 1004.4
20260504140547 20 153 11.3 19.3 0.00 0.00 0.00 56 1004.3
20260504130539 18 132 0.0 12.9 0.00 0.00 0.00 58 1004.4
20260504110532 18 110 0.0 0.0 0.00 0.00 0.00 57 1004.9
20260504100529 18 267 0.0 16.1 0.00 0.00 0.00 54 1004.9
20260504081513 17 128 1.6 9.7 0.00 0.00 0.00 60 1005.7
20260504081012 17 135 0.0 0.0 0.00 0.00 0.00 60 1005.8
20260504080511 17 145 0.0 0.0 0.00 0.00 0.00 61 1005.9